Location: Fort Wayne
(41.1310°N, 85.1290°W)
Time: 04:37:44
(UTC-04:00)

Meteor 2-9 Rocket - Visible Passes

Search period start: 28 August 2016 00:00
Search period end: 07 September 2016 00:00
Orbit: 791 x 896 km, 81.3° (Epoch: 27 August)

Date Brightness Start Highest point End Pass type
(mag) Time Alt. Az. Time Alt. Az. Time Alt. Az.
28 Aug 6.6 00:23:21 12° W 00:25:26 15° WNW 00:28:28 10° NNW visible
28 Aug 4.1 22:26:58 52° SE 22:28:02 62° E 22:33:23 10° NNE visible
29 Aug 6.5 00:08:47 13° W 00:11:15 17° WNW 00:14:41 10° NNW visible
29 Aug 4.2 22:12:18 40° SSE 22:13:57 54° E 22:19:12 10° NNE visible
29 Aug 6.4 23:54:07 13° WSW 23:57:03 19° WNW 00:00:50 10° NNW visible
30 Aug 4.3 21:57:29 29° SSE 21:59:52 47° E 22:05:01 10° NNE visible
30 Aug 6.3 23:39:17 12° WSW 23:42:52 21° WNW 23:46:56 10° NNW visible
31 Aug 4.5 21:42:27 20° SSE 21:45:47 41° E 21:50:49 10° NNE visible
31 Aug 6.1 23:24:20 10° WSW 23:28:42 24° WNW 23:33:01 10° NNW visible
01 Sep 4.6 21:27:01 11° SSE 21:31:43 36° E 21:36:36 10° NNE visible
01 Sep 6.0 23:09:56 10° SW 23:14:32 27° WNW 23:19:04 10° NNW visible
02 Sep 4.8 21:12:52 10° SSE 21:17:39 32° E 21:22:21 10° NNE visible
02 Sep 5.8 22:55:36 10° SW 23:00:22 30° WNW 23:05:05 10° N visible
03 Sep 5.0 20:59:02 10° SSE 21:03:35 28° E 21:08:06 10° NNE visible
03 Sep 5.6 22:41:17 10° SW 22:46:13 34° WNW 22:51:05 10° N visible
04 Sep 5.1 20:45:14 10° SE 20:49:32 25° E 20:53:48 10° NE visible
04 Sep 5.4 22:27:00 10° SW 22:32:03 39° WNW 22:37:03 10° N visible
05 Sep 5.3 20:31:29 10° SE 20:35:29 22° E 20:39:27 10° NE visible
05 Sep 5.2 22:12:44 10° SSW 22:17:55 44° WNW 22:23:01 10° N visible
06 Sep 4.9 21:58:31 10° SSW 22:03:46 50° WNW 22:08:58 10° N visible
